When you browse on this site, cookies collect data to enhance your experience and personalize the content and advertising you see.
Visit our Privacy Policy to learn more. By continuing to use the site, you agree to this use of cookies and data.
  • In Netherlands
  • List of Countries
  • For 7 days
  • Water Temperature
  • Satellite Maps
  • Weather Map
  • Weather Widgets
  • user-avatar
    Login

    Hourly Weather Kamenno-Andrianovo

    Today, 10 December, Monday

    Time Temperature Precipitation Wind Pressure Humidity
    00:00 +1°C° 0.1 mm 5 mps 758 mmHg 87%
    01:00 +1°C° 0 mm 5 mps 757 mmHg 87%
    02:00 0°C° 0 mm 5 mps 757 mmHg 86%
    03:00 0°C° 0 mm 3 mps 757 mmHg 90%
    04:00 -1°C° 0 mm 4 mps 757 mmHg 90%
    05:00 -1°C° 0 mm 5 mps 756 mmHg 90%
    06:00 -1°C° 0 mm 5 mps 756 mmHg 91%
    07:00 -1°C° 0 mm 5 mps 756 mmHg 91%
    08:00 -1°C° 0 mm 5 mps 756 mmHg 91%
    09:00 -2°C° 0 mm 6 mps 756 mmHg 91%
    10:00 -2°C° 0.1 mm 6 mps 755 mmHg 91%
    11:00 -1°C° 0.1 mm 6 mps 755 mmHg 91%
    12:00 -1°C° 0.1 mm 6 mps 755 mmHg 91%
    13:00 -1°C° 0.3 mm 6 mps 755 mmHg 91%
    14:00 +1°C° 0.3 mm 6 mps 754 mmHg 91%
    15:00 0°C° 0.3 mm 7 mps 754 mmHg 91%
    16:00 +1°C° 1.1 mm 6 mps 754 mmHg 92%
    17:00 +1°C° 1.1 mm 6 mps 754 mmHg 92%
    18:00 +1°C° 1.1 mm 6 mps 754 mmHg 93%
    19:00 +2°C° 0.5 mm 6 mps 754 mmHg 94%
    20:00 +2°C° 0.5 mm 6 mps 754 mmHg 94%
    21:00 +2°C° 0.5 mm 6 mps 754 mmHg 95%
    22:00 +2°C° 0.3 mm 5 mps 754 mmHg 96%
    23:00 +2°C° 0.3 mm 5 mps 754 mmHg 96%

    Tomorrow, 11 December, Tuesday

    Time Temperature Precipitation Wind Pressure Humidity
    00:00 +2°C° 0.3 mm 5 mps 754 mmHg 97%
    01:00 +3°C° 0.1 mm 4 mps 754 mmHg 97%
    02:00 +3°C° 0.1 mm 4 mps 754 mmHg 97%
    03:00 +3°C° 0.1 mm 4 mps 754 mmHg 98%
    04:00 +3°C° 0 mm 4 mps 754 mmHg 98%
    05:00 +3°C° 0 mm 3 mps 754 mmHg 97%
    06:00 +3°C° 0 mm 3 mps 754 mmHg 97%
    07:00 +3°C° 0 mm 3 mps 754 mmHg 97%
    08:00 +3°C° 0 mm 4 mps 754 mmHg 96%
    09:00 +3°C° 0 mm 4 mps 754 mmHg 96%
    10:00 +2°C° 0 mm 5 mps 754 mmHg 95%
    11:00 +2°C° 0 mm 5 mps 754 mmHg 94%
    12:00 +3°C° 0 mm 6 mps 753 mmHg 93%
    13:00 +3°C° 0.2 mm 6 mps 753 mmHg 93%
    14:00 +2°C° 0.2 mm 6 mps 752 mmHg 93%
    15:00 +2°C° 0.2 mm 7 mps 752 mmHg 92%
    16:00 +2°C° 0.4 mm 6 mps 752 mmHg 93%
    17:00 +3°C° 0.4 mm 6 mps 752 mmHg 93%
    18:00 +3°C° 0.4 mm 5 mps 752 mmHg 93%
    19:00 +3°C° 0.3 mm 6 mps 751 mmHg 93%
    20:00 +3°C° 0.3 mm 7 mps 751 mmHg 93%
    21:00 +4°C° 0.3 mm 8 mps 751 mmHg 92%
    22:00 +4°C° 0.2 mm 8 mps 751 mmHg 92%
    23:00 +4°C° 0.2 mm 8 mps 750 mmHg 92%

    Day after tomorrow, 12 December, Wednesday

    Time Temperature Precipitation Wind Pressure Humidity
    00:00 +3°C° 0.2 mm 9 mps 750 mmHg 92%
    01:00 +5°C° 0 mm 8 mps 750 mmHg 91%
    02:00 +5°C° 0 mm 8 mps 750 mmHg 89%
    03:00 +5°C° 0 mm 8 mps 750 mmHg 88%
    04:00 +5°C° 0.1 mm 7 mps 750 mmHg 86%
    05:00 +5°C° 0.1 mm 7 mps 750 mmHg 85%
    06:00 +5°C° 0.1 mm 7 mps 750 mmHg 84%
    07:00 +4°C° 0.1 mm 7 mps 751 mmHg 83%
    08:00 +4°C° 0.1 mm 8 mps 751 mmHg 82%
    09:00 +2°C° 0.1 mm 8 mps 752 mmHg 81%
    10:00 +2°C° 0 mm 8 mps 752 mmHg 79%
    11:00 +3°C° 0 mm 9 mps 753 mmHg 77%
    12:00 +3°C° 0 mm 9 mps 753 mmHg 75%
    13:00 +3°C° 0 mm 9 mps 753 mmHg 74%
    14:00 +3°C° 0 mm 9 mps 754 mmHg 74%
    15:00 +3°C° 0 mm 9 mps 754 mmHg 73%
    16:00 +2°C° 0 mm 8 mps 755 mmHg 75%
    17:00 +2°C° 0 mm 7 mps 755 mmHg 77%
    18:00 +2°C° 0 mm 5 mps 756 mmHg 79%
    19:00 +2°C° 0 mm 5 mps 756 mmHg 81%
    20:00 +1°C° 0 mm 5 mps 757 mmHg 83%
    21:00 +1°C° 0 mm 4 mps 757 mmHg 84%
    22:00 +1°C° 0 mm 4 mps 757 mmHg 85%
    23:00 +2°C° 0 mm 3 mps 758 mmHg 86%

    13 December, Thursday

    Time Temperature Precipitation Wind Pressure Humidity
    00:00 +1°C° 0 mm 3 mps 758 mmHg 86%
    01:00 +1°C° 0 mm 3 mps 758 mmHg 87%
    02:00 +1°C° 0 mm 3 mps 759 mmHg 87%
    03:00 +1°C° 0 mm 3 mps 759 mmHg 88%
    04:00 +1°C° 0 mm 3 mps 759 mmHg 88%
    05:00 +1°C° 0 mm 3 mps 759 mmHg 88%
    06:00 +1°C° 0 mm 3 mps 760 mmHg 88%
    07:00 +1°C° 0 mm 3 mps 760 mmHg 88%
    08:00 +1°C° 0 mm 3 mps 761 mmHg 88%
    09:00 +2°C° 0 mm 3 mps 761 mmHg 88%
    10:00 +1°C° 0 mm 4 mps 761 mmHg 81%
    11:00 +3°C° 0 mm 4 mps 761 mmHg 75%
    12:00 +3°C° 0 mm 5 mps 761 mmHg 68%
    13:00 +3°C° 0 mm 5 mps 762 mmHg 67%
    14:00 +4°C° 0 mm 4 mps 762 mmHg 65%
    15:00 +5°C° 0 mm 4 mps 762 mmHg 64%
    16:00 +4°C° 0 mm 4 mps 762 mmHg 69%
    17:00 +3°C° 0 mm 3 mps 762 mmHg 74%
    18:00 +2°C° 0 mm 3 mps 762 mmHg 79%
    19:00 +2°C° 0 mm 3 mps 762 mmHg 81%
    20:00 +2°C° 0 mm 3 mps 762 mmHg 83%
    21:00 +2°C° 0 mm 3 mps 763 mmHg 84%
    22:00 +1°C° 0 mm 3 mps 763 mmHg 86%
    23:00 +1°C° 0 mm 3 mps 763 mmHg 87%

    14 December, Friday

    Time Temperature Precipitation Wind Pressure Humidity
    00:00 +1°C° 0 mm 3 mps 763 mmHg 89%
    01:00 +1°C° 0 mm 3 mps 763 mmHg 89%
    02:00 +1°C° 0 mm 3 mps 763 mmHg 90%
    03:00 +1°C° 0 mm 3 mps 763 mmHg 91%
    04:00 +1°C° 0 mm 3 mps 763 mmHg 92%
    05:00 +1°C° 0 mm 3 mps 763 mmHg 92%
    06:00 +1°C° 0 mm 2 mps 763 mmHg 93%
    07:00 +2°C° 0 mm 2 mps 763 mmHg 93%
    08:00 +2°C° 0 mm 2 mps 763 mmHg 93%
    09:00 +2°C° 0 mm 2 mps 764 mmHg 93%
    10:00 +3°C° 0 mm 2 mps 764 mmHg 88%
    11:00 +4°C° 0 mm 2 mps 764 mmHg 84%
    12:00 +5°C° 0 mm 2 mps 764 mmHg 79%
    13:00 +5°C° 0.1 mm 2 mps 764 mmHg 78%
    14:00 +6°C° 0.1 mm 1 mps 764 mmHg 78%
    15:00 +6°C° 0.1 mm 1 mps 764 mmHg 77%
    16:00 +6°C° 0.1 mm 1 mps 765 mmHg 80%
    17:00 +5°C° 0.1 mm 1 mps 765 mmHg 82%
    18:00 +4°C° 0.1 mm 1 mps 765 mmHg 85%
    19:00 +4°C° 0.1 mm 1 mps 765 mmHg 86%
    20:00 +4°C° 0.1 mm 1 mps 765 mmHg 88%
    21:00 +4°C° 0.1 mm 1 mps 765 mmHg 89%
    22:00 +3°C° 0 mm 1 mps 765 mmHg 90%
    23:00 +3°C° 0 mm 1 mps 765 mmHg 91%

    15 December, Saturday

    Time Temperature Precipitation Wind Pressure Humidity
    00:00 +3°C° 0 mm 1 mps 765 mmHg 91%
    01:00 +2°C° 0 mm 2 mps 766 mmHg 92%
    02:00 +1°C° 0 mm 2 mps 766 mmHg 92%
    03:00 +1°C° 0 mm 2 mps 766 mmHg 92%
    04:00 +1°C° 0 mm 2 mps 766 mmHg 93%
    05:00 +1°C° 0 mm 2 mps 766 mmHg 93%
    06:00 +1°C° 0 mm 2 mps 767 mmHg 93%
    07:00 +1°C° 0 mm 2 mps 767 mmHg 93%
    08:00 +1°C° 0 mm 2 mps 767 mmHg 93%
    09:00 +1°C° 0 mm 2 mps 768 mmHg 93%
    10:00 +1°C° 0 mm 2 mps 768 mmHg 90%
    11:00 +2°C° 0 mm 2 mps 768 mmHg 87%
    12:00 +1°C° 0 mm 3 mps 769 mmHg 84%
    13:00 +1°C° 0.1 mm 3 mps 769 mmHg 84%
    14:00 +1°C° 0.1 mm 3 mps 769 mmHg 83%
    15:00 +1°C° 0.1 mm 3 mps 769 mmHg 82%
    16:00 0°C° 0 mm 3 mps 770 mmHg 83%
    17:00 0°C° 0 mm 3 mps 770 mmHg 83%
    18:00 -1°C° 0 mm 3 mps 770 mmHg 84%
    19:00 -1°C° 0 mm 3 mps 771 mmHg 83%
    20:00 -1°C° 0 mm 3 mps 771 mmHg 82%
    21:00 -2°C° 0 mm 3 mps 771 mmHg 82%
    22:00 -2°C° 0 mm 3 mps 772 mmHg 82%
    23:00 -2°C° 0 mm 3 mps 772 mmHg 82%
    Show more